Tracking 19490 objects as of 24-Jan-2019
HD Live streaming from Space Station
objects crossing your sky now

FENGYUN 1C DEB

Track FENGYUN 1C DEB now!
10-day predictions


NORAD ID: 30338
Int'l Code: 1999-025AAZ
Perigee: 564.4 km
Apogee: 1,062.6 km
Inclination: 98.8 °
Period: 101.0 minutes
Semi major axis: 7184 km
RCS: 0.0507 m2 (small)
Launch date: May 10, 1999
Source: People's Republic of China (PRC)
Launch site: Taiyaun Space Center, China (TSC)

Note: This is SATELLITE DEBRIS
aabbcc
Your satellite tracking list
Your tracking list is empty




NASA's NSSDC Master Catalog

Two Line Element Set (TLE):
1 30338U 99025AAZ 19023.69990998  .00000380  00000-0  97625-4 0  9990
2 30338  98.7612  79.1181 0346701  52.8415  65.0078 14.25642017621866
Source of the keplerian elements: AFSPC